Harlan, IA

4:44 AM CST on December 15, 2019 (GMT -0600)
Harlan Municipal

Weather History for KHNR - October, 2019

Change the Weather History Date:

Saturday, October 26, 2019

  Actual Average Record
Temperature  
Mean Temperature 40 °F -  
Max Temperature 57 °F 60 °F 84 °F (1955)
Min Temperature 24 °F 37 °F 20 °F (1980)
Degree Days  
Heating Degree Days 24    
Moisture  
Dew Point 30 °F    
Average Humidity 74    
Maximum Humidity 100    
Minimum Humidity 29    
Precipitation  
Precipitation 0.00 in - - ()
Sea Level Pressure  
Sea Level Pressure 29.85 in    
Wind  
Wind Speed 3 mph ()    
Max Wind Speed 15 mph    
Max Gust Speed 18 mph    
Visibility 9.9 miles    
Events      
Averages and records for this station are not official NWS values.
T = Trace of Precipitation, MM = Missing Value Source: Averaged Metar Reports

Daily Weather History Graph

Daily Weather History Graph

Search for Another Location

Airport or City:

Astronomy

Oct. 26, 2019 Rise Set
Actual Time 7:45 AM CDT 6:24 PM CDT
Civil Twilight 7:17 AM CDT 6:52 PM CDT
Nautical Twilight 6:44 AM CDT 7:25 PM CDT
Astronomical Twilight 6:12 AM CDT 7:57 PM CDT
Moon 5:40 AM CDT (10/26) 6:02 PM CDT (10/26)
Length of Visible Light 11h 35m
Length of Day
10h 38m
Waning Crescent, 3% of the Moon is Illuminated
Oct 26
Waning Crescent
Oct 27
New
Nov 4
First Quarter
Nov 12
Full
Nov 19
Last Quarter

Hourly Weather History & Observations

Time (CDT) Temp. Windchill Dew Point Humidity Pressure Visibility Wind Dir Wind Speed Gust Speed Precip Events Conditions
12:15 AM 33.8 °F - 28.4 °F 81% 30.10 in 10.0 mi Calm Calm - N/A   Clear
12:35 AM 33.8 °F - 28.4 °F 81% 30.09 in 10.0 mi Calm Calm - N/A   Clear
12:55 AM 32.0 °F - 28.4 °F 87% 30.08 in 10.0 mi Calm Calm - N/A   Clear
1:15 AM 32.0 °F - 28.4 °F 87% 30.07 in 10.0 mi Calm Calm - N/A   Clear
1:35 AM 32.0 °F - 28.4 °F 87% 30.06 in 10.0 mi Calm Calm - N/A   Clear
1:55 AM 30.2 °F - 28.4 °F 93% 30.06 in 10.0 mi Calm Calm - N/A   Clear
2:15 AM 30.2 °F - 28.4 °F 93% 30.06 in 10.0 mi Calm Calm - N/A   Clear
2:35 AM 30.2 °F - 28.4 °F 93% 30.05 in 10.0 mi Calm Calm - N/A   Clear
2:55 AM 28.4 °F - 26.6 °F 93% 30.05 in 10.0 mi Calm Calm - N/A   Clear
3:15 AM 28.4 °F 24.6 °F 26.6 °F 93% 30.04 in 10.0 mi South 3.5 mph - N/A   Clear
3:35 AM 28.4 °F - 26.6 °F 93% 30.04 in 10.0 mi Calm Calm - N/A   Clear
3:55 AM 30.2 °F - 28.4 °F 93% 30.03 in 10.0 mi Calm Calm - N/A   Clear
4:15 AM 30.2 °F - 28.4 °F 93% 30.02 in 10.0 mi Calm Calm - N/A   Clear
4:35 AM 30.2 °F - 28.4 °F 93% 30.01 in 10.0 mi Calm Calm - N/A   Clear
4:55 AM 28.4 °F - 26.6 °F 93% 30.00 in 10.0 mi Calm Calm - N/A   Clear
5:15 AM 30.2 °F 25.4 °F 28.4 °F 93% 29.99 in 10.0 mi South 4.6 mph - N/A   Clear
5:35 AM 28.4 °F - 26.6 °F 93% 29.98 in 10.0 mi Calm Calm - N/A   Clear
5:55 AM 28.4 °F - 26.6 °F 93% 29.97 in 10.0 mi Calm Calm - N/A   Clear
6:15 AM 28.4 °F - 26.6 °F 93% 29.97 in 10.0 mi Calm Calm - N/A   Clear
6:35 AM 26.6 °F - 26.6 °F 100% 29.96 in 10.0 mi Calm Calm - N/A   Clear
6:55 AM 24.8 °F - 24.8 °F 100% 29.95 in 10.0 mi Calm Calm - N/A   Clear
7:15 AM 24.8 °F - 24.8 °F 100% 29.94 in 10.0 mi Calm Calm - N/A   Clear
7:35 AM 26.6 °F - 26.6 °F 100% 29.92 in 10.0 mi Calm Calm - N/A   Clear
7:55 AM 26.6 °F - 24.8 °F 93% 29.91 in 10.0 mi Calm Calm - N/A   Clear
8:15 AM 26.6 °F - 24.8 °F 93% 29.90 in 10.0 mi Calm Calm - N/A   Clear
8:35 AM 28.4 °F - 28.4 °F 100% 29.90 in 10.0 mi Calm Calm - N/A   Clear
8:55 AM 30.2 °F - 28.4 °F 93% 29.90 in 10.0 mi Calm Calm - N/A   Clear
9:15 AM 32.0 °F - 32.0 °F 100% 29.89 in 10.0 mi Calm Calm - N/A   Clear
9:35 AM 35.6 °F 29.2 °F 33.8 °F 93% 29.88 in 10.0 mi South 8.1 mph - N/A   Clear
9:55 AM 39.2 °F 33.6 °F 35.6 °F 87% 29.88 in 10.0 mi South 8.1 mph - N/A   Clear
10:15 AM 41.0 °F 35.2 °F 37.4 °F 87% 29.87 in 10.0 mi SSW 9.2 mph - N/A   Clear
10:35 AM 42.8 °F 38.0 °F 37.4 °F 81% 29.87 in 10.0 mi SSW 8.1 mph - N/A   Clear
10:55 AM 44.6 °F 38.4 °F 35.6 °F 71% 29.85 in 10.0 mi South 12.7 mph - N/A   Clear
11:15 AM 46.4 °F 41.1 °F 35.6 °F 66% 29.84 in 10.0 mi South 11.5 mph 18.4 mph N/A   Clear
11:35 AM 48.2 °F - 35.6 °F 62% 29.85 in 10.0 mi South 13.8 mph - N/A   Clear
11:55 AM 48.2 °F - 33.8 °F 58% 29.84 in 10.0 mi South 12.7 mph 18.4 mph N/A   Clear
12:15 PM 50.0 °F - 33.8 °F 54% 29.84 in 10.0 mi South 15.0 mph - N/A   Clear
12:35 PM 50.0 °F - 32.0 °F 50% 29.83 in 10.0 mi SSW 11.5 mph 18.4 mph N/A   Clear
12:55 PM 51.8 °F - 32.0 °F 47% 29.82 in 10.0 mi South 12.7 mph - N/A   Clear
1:15 PM 51.8 °F - 30.2 °F 44% 29.80 in 10.0 mi South 12.7 mph - N/A   Clear
1:35 PM 53.6 °F - 30.2 °F 41% 29.78 in 10.0 mi SSW 12.7 mph - N/A   Clear
1:55 PM 53.6 °F - 30.2 °F 41% 29.76 in 10.0 mi South 9.2 mph 16.1 mph N/A   Clear
2:15 PM 55.4 °F - 30.2 °F 38% 29.75 in 10.0 mi SSW 10.4 mph - N/A   Clear
2:35 PM 55.4 °F - 26.6 °F 33% 29.74 in 10.0 mi SSW 10.4 mph - N/A   Clear
3:15 PM 57.2 °F - 26.6 °F 31% 29.72 in 10.0 mi South 11.5 mph - N/A   Clear
3:35 PM 57.2 °F - 26.6 °F 31% 29.70 in 10.0 mi SSE 10.4 mph 16.1 mph N/A   Clear
3:55 PM 57.2 °F - 26.6 °F 31% 29.70 in 10.0 mi South 9.2 mph 16.1 mph N/A   Clear
4:15 PM 57.2 °F - 24.8 °F 29% 29.69 in 10.0 mi South 10.4 mph 17.3 mph N/A   Clear
4:35 PM 57.2 °F - 24.8 °F 29% 29.69 in 10.0 mi SSE 11.5 mph 18.4 mph N/A   Clear
5:15 PM 55.4 °F - 26.6 °F 33% 29.69 in 10.0 mi SSE 10.4 mph - N/A   Clear
5:35 PM 55.4 °F - 26.6 °F 33% 29.69 in 10.0 mi SSE 10.4 mph - N/A   Clear
6:15 PM 51.8 °F - 28.4 °F 41% 29.69 in 10.0 mi SSE 6.9 mph - N/A   Clear
6:35 PM 50.0 °F - 28.4 °F 43% 29.68 in 10.0 mi South 4.6 mph - N/A   Clear
6:55 PM 48.2 °F - 28.4 °F 46% 29.69 in 10.0 mi South 4.6 mph - N/A   Clear
7:15 PM 44.6 °F 43.1 °F 30.2 °F 57% 29.69 in 10.0 mi SW 3.5 mph - N/A   Clear
7:35 PM 42.8 °F - 30.2 °F 61% 29.69 in 10.0 mi Calm Calm - N/A   Clear
7:55 PM 39.2 °F - 32.0 °F 75% 29.70 in 7.0 mi Calm Calm - N/A   Clear
8:15 PM 41.0 °F - 32.0 °F 70% 29.70 in 10.0 mi Calm Calm - N/A   Clear
8:35 PM 37.4 °F - 32.0 °F 81% 29.69 in 8.0 mi Calm Calm - N/A   Clear
8:55 PM 37.4 °F - 32.0 °F 81% 29.70 in 10.0 mi Calm Calm - N/A   Clear
9:35 PM 37.4 °F - 32.0 °F 81% 29.70 in 10.0 mi Calm Calm - N/A   Clear
9:55 PM 35.6 °F - 32.0 °F 87% 29.70 in 10.0 mi Calm Calm - N/A   Clear
10:15 PM 35.6 °F - 32.0 °F 87% 29.70 in 10.0 mi Calm Calm - N/A   Clear
10:35 PM 35.6 °F - 32.0 °F 87% 29.70 in 10.0 mi Calm Calm - N/A   Clear
10:55 PM 35.6 °F - 32.0 °F 87% 29.70 in 10.0 mi Calm Calm - N/A   Clear
11:15 PM 33.8 °F - 32.0 °F 93% 29.71 in 10.0 mi Calm Calm - N/A   Clear
11:35 PM 33.8 °F - 32.0 °F 93% 29.71 in 10.0 mi Calm Calm - N/A   Clear
11:55 PM 33.8 °F - 32.0 °F 93% 29.71 in 10.0 mi Calm Calm - N/A   Clear